Find Local Weather

World > North America > United States > Indiana

Greensburg, Indiana Regional Weather

Lat: 39.34N, Lon: 85.48W
Wx Zone: INZ065
Feedback
Expires:201811201200;;583510
ASUS43 KIND 201109
RWRIN 

WEATHER ROUNDUP FOR INDIANA
NATIONAL WEATHER SERVICE INDIANAPOLIS IN
600 AM EST TUE NOV 20 2018

NOTE: "FAIR" INDICATES FEW OR NO CLOUDS BELOW 12,000 FEET WITH NO
SIGNIFICANT WEATHER AND/OR OBSTRUCTIONS TO VISIBILITY.

* - STATION DOES NOT REPORT WEATHER SUCH AS PRECIPITATION OR FOG.

+ - STATION NOT QUALITY CONTROLLED BY THE NATIONAL WEATHER SERVICE.
    USE DATA WITH CAUTION...ESPECIALLY DEWPOINT AND RELATIVE
    HUMIDITY OBSERVATIONS.


INZ030>032-037>040-046>048-054>057-064-065-201200-
CENTRAL INDIANA
  
CITY           SKY/WX    TMP DP  RH WIND       PRES   REMARKS
ANDERSON +     DRIZZLE   33  32  96 NW9       30.09R WCI  26          
FISHERS *+     CLOUDY    32  32 100 NW10      30.12R WCI  24          
FRANKFORT +    CLOUDY    35  32  88 NW9       30.13R FOG     WCI  27  
INDIANAPOLIS   DRIZZLE   33  30  88 NW16G24   30.12R WCI  23          
-EAGLE CREEK   CLOUDY    34  29  82 NW13      30.11R WCI  25          
KOKOMO +       MIX PCPN  33  31  92 NW8       30.11R FOG     WCI  26  
MARION +       CLOUDY   N/A N/A N/A NW7       30.11R FOG              
MT COMFORT *+  CLOUDY    34  34 100 NW9       30.10R WCI  26          
SHELBYVILLE    CLOUDY    37  34  89 W7        30.09R FOG     WCI  32  
ZIONSVILLE +   CLOUDY    32  31  96 NW8       30.11R WCI  25          

$$


SKY/WX - Weather  TMP - Temperature  DP - Dew Point  RH - Relative Humidity
WIND - Wind Direction/Speed PRES - Barometric Pressure